Home > Weather > Uroševac > Past weeks

Flag for Kosovo Past Weather in Uroševac, Kosovo — Yesterday and Last 2 Weeks

Now
81 °F

Sunny.


Feels Like: 82 °F
Forecast: 63 / 83 °F
Wind: 2 mph from South

Location: Skopje-Petrovec

Current Time: Jul 2, 2016 at 11:46:40 AM

Latest Report: Jul 2, 2016 at 11:00 AM


Visibility: 10 mi

Pressure: 30.04 "Hg (28.11 "Hg at 582m altitude)

Humidity: 58%

Dew Point: 64 °F

Location of UroševacLocation

Past Weather in Uroševac — Graph

°F

Uroševac Temperature Yesterday

Maximum temperature yesterday: 95 °F (at 5:00 PM)
Minimum temperature yesterday: 63 °F (at 5:00 AM)
Average temperature yesterday: 77 °F

High & Low Weather Summary for the Past Weeks

 TemperatureHumidityPressure
High100 °F (Jun 18, 4:30 PM)100% (Jun 24, 4:00 AM)30.15 "Hg (Jun 24, 4:00 AM)
Low57 °F (Jun 30, 5:00 AM)21% (Jun 18, 4:30 PM)29.80 "Hg (Jun 27, 4:30 PM)
Average79 °F58%30.00 "Hg
* Reported Jun 17 10:00 AM — Jul 2 10:30 AM, Uroševac, Weather by CustomWeather, © 2016

Note: Actual official high and low records may vary slightly from our data, if they occured in-between our weather recording intervals... More about our weather records

Advertising

Uroševac Weather History for the Previous 24 Hours

Scroll right to see more
 ConditionsComfort  
Time TempWeatherWind HumidityBarometerVisibility
10:30 AM
Sat, Jul 2
79 °FSunny.No wind61%30.04 "Hg10 mi
10:00 AM77 °FSunny.No wind65%30.04 "Hg10 mi
9:30 AM75 °FSunny.No wind69%30.04 "Hg10 mi
9:00 AM73 °FSunny.No wind78%30.07 "Hg10 mi
8:30 AM72 °FSunny.No wind78%30.07 "Hg10 mi
8:00 AM72 °FSunny.No wind78%30.07 "Hg10 mi
7:30 AM70 °FSunny.1 mph83%30.07 "Hg10 mi
7:00 AM66 °FSunny.No wind94%30.07 "Hg10 mi
6:30 AM64 °FSunny.No wind94%30.07 "Hg10 mi
6:00 AM64 °FClear.1 mph94%30.07 "Hg10 mi
5:30 AM63 °FPassing clouds.1 mph94%30.07 "HgN/A
5:00 AM63 °FClear.No wind94%30.07 "Hg10 mi
4:00 AM64 °FClear.2 mph94%30.07 "Hg10 mi
3:30 AM64 °FClear.1 mph94%30.07 "Hg10 mi
3:00 AM66 °FClear.1 mph94%30.07 "Hg10 mi
2:30 AM66 °FClear.3 mph94%30.07 "Hg10 mi
2:00 AM66 °FClear.2 mph94%30.07 "Hg10 mi
1:30 AM68 °FClear.3 mph88%30.07 "Hg10 mi
1:00 AM68 °FClear.1 mph88%30.07 "Hg10 mi
12:30 AM68 °FClear.3 mph94%30.07 "Hg10 mi
12:00 AM68 °FClear.2 mph94%30.07 "Hg10 mi
11:30 PM
Fri, Jul 1
70 °FPassing clouds.2 mph88%30.09 "HgN/A
11:00 PM70 °FDrizzle. Mostly cloudy.3 mph88%30.09 "HgN/A
10:30 PM68 °FOvercast.2 mph94%30.09 "HgN/A
10:00 PM70 °FMostly cloudy.5 mph88%30.09 "HgN/A
9:30 PM70 °FLight rain. Mostly cloudy.No wind88%30.09 "HgN/A
9:00 PM70 °FThunderstorms. Broken clouds.7 mph88%30.09 "HgN/A
8:30 PM70 °FThunderstorms. Broken clouds.2 mph88%30.07 "HgN/A
8:00 PM72 °FThunderstorms. Broken clouds.9 mph83%30.04 "HgN/A
7:30 PM72 °FStrong thunderstorms. Broken clouds.6 mph78%30.04 "Hg1 mi
7:00 PM73 °FStrong thunderstorms. Partly sunny.14 mph74%29.98 "Hg2 mi
6:30 PM84 °FThunderstorms. Scattered clouds.14 mph45%29.98 "HgN/A
6:00 PM90 °FLight rain. Broken clouds.8 mph36%29.95 "HgN/A
5:30 PM91 °FScattered clouds.6 mph32%29.95 "HgN/A
5:00 PM95 °FScattered clouds.9 mph26%29.95 "HgN/A
4:30 PM93 °FPassing clouds.2 mph26%29.95 "HgN/A
4:00 PM93 °FPassing clouds.5 mph26%29.95 "HgN/A
3:30 PM93 °FScattered clouds.5 mph28%29.95 "HgN/A
3:00 PM93 °FScattered clouds.6 mph30%29.95 "HgN/A
2:30 PM91 °FScattered clouds.3 mph34%29.95 "HgN/A
2:00 PM91 °FScattered clouds.5 mph34%29.98 "HgN/A
1:30 PM91 °FPassing clouds.2 mph34%29.98 "HgN/A
1:00 PM90 °FPassing clouds.3 mph36%30.01 "HgN/A
12:30 PM88 °FPassing clouds.3 mph38%30.01 "HgN/A
12:00 PM88 °FPassing clouds.3 mph38%30.01 "HgN/A
11:30 AM86 °FPassing clouds.2 mph43%30.01 "HgN/A
11:00 AM86 °FPassing clouds.3 mph43%30.04 "HgN/A
Weather by CustomWeather, © 2016

See weather overviewHow to use our weather pages